[[{"header":{"parameterUnit":"m.s-1","parameterCategory":1,"la1":30.2991,"la2":30.254,"lo1":-89.0895,"lo2":-89.0444,"dy":0.0017,"dx":0.0017,"nx":28,"ny":28,"refTime":"2025-02-26T03:00:00:Z","depth":0,"parameterNumber":2,"parameterNumberName":"U-component_of_WINDS"},"data":[0,0,0,0,0,0,0,0,0,0,0,0,0,0,0,0,0,0,0,0,0,0,0,0,0,0,0,0,0,0,0,0,0,0,0,0,0,0,0,0,0,0,0,0,0,0,0,0,0,0,0,0,0,0,0,0,0,0,-0.2981,-0.2981,0,-0.2992,-0.2992,-0.2992,-0.301,-0.301,-0.3011,-0.3011,-0.3021,-0.3021,-0.3021,0,0,0,0,0,0,0,0,0,0,0,0,0,-0.2975,-0.2975,-0.2981,-0.2981,-0.2981,-0.2992,-0.2992,-0.2992,-0.301,-0.301,-0.3011,-0.3011,-0.3021,-0.3021,-0.3021,0,0,0,0,0,0,0,0,0,0,0,0,0,-0.2981,-0.2975,-0.2981,-0.2991,-0.2992,-0.2992,-0.2992,-0.2992,-0.301,-0.301,-0.3011,-0.3011,-0.3021,-0.3021,-0.3021,-0.301,0,0,-0.302,-0.302,0,0,0,0,0,0,0,0,-0.298,-0.2981,-0.299,-0.2991,-0.2992,-0.3,-0.2993,-0.2998,-0.301,-0.3003,-0.3011,-0.3012,-0.3013,-0.3014,-0.3015,-0.301,-0.3011,-0.302,-0.302,-0.302,-0.302,0,0,0,0,0,0,0,-0.298,-0.2981,-0.2985,-0.299,-0.2991,-0.2995,-0.2997,-0.2994,-0.3005,-0.3004,-0.3005,-0.3006,-0.3014,-0.3015,-0.3015,-0.3011,-0.302,-0.302,-0.302,-0.302,-0.2998,-0.2997,0,0,0,0,0,0,-0.2978,-0.298,-0.2985,-0.2985,-0.2987,-0.2995,-0.2997,-0.2997,-0.3005,-0.3007,-0.3006,-0.3007,-0.3015,-0.3015,-0.3016,-0.3003,-0.302,-0.302,-0.302,-0.2999,-0.2998,-0.2997,0,0,0,0,0,0,-0.2978,-0.2978,-0.2984,-0.2983,-0.2984,-0.2995,-0.2995,-0.2997,-0.2998,-0.3007,-0.3009,-0.3005,-0.3015,-0.3016,-0.3011,-0.3003,-0.302,-0.302,-0.2999,-0.2998,-0.2998,-0.2978,0,0,0,0,0,0,-0.2978,-0.2978,-0.2974,-0.2983,-0.2984,-0.298,-0.2994,-0.2997,-0.2997,-0.2999,-0.3006,-0.3008,-0.3016,-0.3011,-0.3011,-0.3004,-0.302,-0.3,-0.2999,-0.2998,-0.2979,-0.2976,-0.2974,0,0,0,0,0,-0.2977,-0.2968,-0.2974,-0.2974,-0.298,-0.2979,-0.298,-0.2989,-0.2997,-0.2993,-0.2999,-0.3008,-0.3005,-0.3011,-0.3011,-0.3003,-0.3,-0.2999,-0.2998,-0.298,-0.2977,-0.2974,0,0,0,0,0,0,-0.2958,-0.2969,-0.2976,-0.2969,-0.2973,-0.2982,-0.2977,-0.2986,-0.2987,-0.2989,-0.3,-0.3002,-0.2995,-0.2999,-0.3005,-0.2993,-0.3004,-0.3003,-0.299,-0.2987,-0.2985,-0.2983,-0.302,0,0,0,0,0,-0.2953,-0.2952,-0.2962,-0.2955,-0.2957,-0.2967,-0.2967,-0.2974,-0.2978,-0.298,-0.2986,-0.2989,-0.2989,-0.2989,-0.2989,-0.298,-0.2982,-0.2975,-0.2973,-0.297,-0.2969,-0.2963,-0.296,-0.2993,-0.2993,-0.2993,0,0,-0.2942,-0.2948,-0.2947,-0.2951,-0.2955,-0.2953,-0.2968,-0.2966,-0.2964,-0.298,-0.2975,-0.298,-0.2985,-0.2978,-0.2975,-0.2981,-0.296,-0.2969,-0.2967,-0.2966,-0.2962,-0.2959,-0.2956,-0.2992,-0.2993,-0.2993,0,0,-0.2921,-0.2926,-0.2921,-0.2925,-0.2931,-0.2937,-0.2936,-0.2944,-0.2948,-0.2944,-0.2955,-0.2954,-0.2954,-0.2957,-0.2958,-0.294,-0.2947,-0.294,-0.2925,-0.292,-0.2918,-0.2915,-0.2907,-0.2905,-0.2938,-0.2938,-0.2938,0,-0.2907,-0.2905,-0.2917,-0.2914,-0.2915,-0.293,-0.2924,-0.2927,-0.2932,-0.2933,-0.294,-0.2939,-0.2944,-0.2937,-0.2933,-0.2934,-0.2932,-0.2938,-0.2917,-0.2915,-0.2913,-0.2906,-0.2903,-0.2937,-0.2937,-0.2937,-0.2937,0,-0.2886,-0.2885,-0.288,-0.2885,-0.2886,-0.2882,-0.2893,-0.2892,-0.29,-0.2906,-0.2902,-0.2908,-0.2909,-0.2909,-0.2916,-0.2903,-0.2907,-0.2915,-0.2926,-0.2909,-0.2902,-0.2899,-0.2935,-0.2936,-0.2936,-0.2936,0,0,-0.2852,-0.2865,-0.2862,-0.2865,-0.2873,-0.2872,-0.2868,-0.2871,-0.2869,-0.2873,-0.287,-0.287,-0.2878,-0.2879,-0.2887,-0.2883,-0.2866,-0.2892,-0.2892,-0.2886,-0.2852,-0.2844,-0.284,-0.2873,-0.2872,-0.2872,-0.2851,0,-0.2831,-0.2826,-0.2837,-0.2828,-0.2827,-0.2841,-0.2838,-0.2843,-0.2849,-0.2848,-0.2855,-0.2854,-0.2865,-0.2866,-0.2863,-0.2869,-0.2859,-0.2871,-0.2868,-0.2868,-0.2865,-0.2837,-0.2829,-0.2808,-0.2848,-0.2848,-0.2848,0,-0.2806,-0.2809,-0.28,-0.2809,-0.2809,-0.2806,-0.2809,-0.2809,-0.2814,-0.2819,-0.2821,-0.283,-0.2827,-0.2839,-0.2834,-0.2842,-0.2842,-0.2845,-0.2844,-0.2843,-0.2855,-0.2833,-0.2802,-0.2799,-0.2844,-0.2844,-0.2844,0,-0.278,-0.2782,-0.2777,-0.2779,-0.2789,-0.2787,-0.2791,-0.2797,-0.2798,-0.28,-0.2801,-0.2803,-0.2804,-0.2805,-0.2815,-0.2823,-0.2808,-0.2821,-0.2811,-0.281,-0.2805,-0.2805,-0.2772,-0.2808,-0.2808,-0.2808,-0.2809,0,-0.2755,-0.2748,-0.2765,-0.2762,-0.2755,-0.2768,-0.2761,-0.2767,-0.2773,-0.277,-0.2784,-0.2781,-0.2795,-0.2794,-0.2802,-0.2796,-0.2797,-0.28,-0.2801,-0.2797,-0.2797,-0.2796,-0.2797,-0.2808,-0.2808,-0.2808,-0.2808,0,-0.2723,-0.2734,-0.2729,-0.274,-0.2743,-0.2737,-0.2746,-0.2744,-0.2751,-0.2748,-0.2748,-0.276,-0.2759,-0.277,-0.2771,-0.2777,-0.2766,-0.2772,-0.2764,-0.2765,-0.2754,-0.2754,-0.2718,-0.2713,-0.2754,-0.2753,-0.2753,0,-0.2705,-0.2701,-0.2711,-0.2711,-0.2715,-0.2714,-0.2715,-0.2728,-0.2729,-0.2735,-0.2731,-0.2732,-0.2733,-0.2732,-0.274,-0.2741,-0.2745,-0.2733,-0.2745,-0.2741,-0.2743,-0.2742,-0.2741,-0.2729,-0.2729,-0.2728,-0.2728,0,-0.2672,-0.2678,-0.2679,-0.2682,-0.2682,-0.2685,-0.2689,-0.2688,-0.2703,-0.2702,-0.2702,-0.2703,-0.2705,-0.2705,-0.2708,-0.2712,-0.2722,-0.2724,-0.2722,-0.2716,-0.2711,-0.2712,-0.2755,-0.2724,-0.2725,-0.2725,-0.2725,-0.2725,-0.2645,-0.2642,-0.2649,-0.2649,-0.2654,-0.2657,-0.2655,-0.2663,-0.2663,-0.2666,-0.2674,-0.2672,-0.2678,-0.2683,-0.2687,-0.2685,-0.2691,-0.2688,-0.2687,-0.2685,-0.2682,-0.2714,-0.2686,-0.2686,-0.2686,-0.2686,-0.2687,0,-0.2611,-0.2616,-0.2617,-0.2622,-0.2623,-0.2634,-0.2638,-0.2638,-0.2636,-0.2642,-0.2643,-0.2642,-0.2643,-0.2652,-0.2653,-0.265,-0.2655,-0.265,-0.2649,-0.265,-0.2677,-0.2679,-0.2647,-0.2647,-0.2647,-0.2647,-0.2647,-0.2647,-0.2593,-0.2587,-0.2594,-0.2591,-0.2597,-0.2596,-0.2598,-0.2601,-0.2605,-0.2604,-0.2605,-0.2611,-0.2618,-0.262,-0.2621,-0.2623,-0.2622,-0.2616,-0.2619,-0.2644,-0.2648,-0.2652,-0.2653,-0.2616,-0.2616,-0.2592,-0.2592,-0.2591]},{"header":{"parameterUnit":"m.s-1","parameterCategory":1,"la1":30.2991,"la2":30.254,"lo1":-89.0895,"lo2":-89.0444,"dy":0.0017,"dx":0.0017,"nx":28,"ny":28,"refTime":"2025-02-26T03:00:00:Z","depth":0,"parameterNumber":3,"parameterNumberName":"V-component_of_WINDS"},"data":[0,0,0,0,0,0,0,0,0,0,0,0,0,0,0,0,0,0,0,0,0,0,0,0,0,0,0,0,0,0,0,0,0,0,0,0,0,0,0,0,0,0,0,0,0,0,0,0,0,0,0,0,0,0,0,0,0,0,-0.0284,-0.0284,0,-0.0284,-0.0284,-0.0284,-0.0287,-0.0287,-0.0287,-0.0288,-0.0288,-0.0288,-0.0288,0,0,0,0,0,0,0,0,0,0,0,0,0,-0.0285,-0.0285,-0.0284,-0.0284,-0.0284,-0.0284,-0.0284,-0.0284,-0.0287,-0.0287,-0.0287,-0.0288,-0.0288,-0.0288,-0.0288,0,0,0,0,0,0,0,0,0,0,0,0,0,-0.0285,-0.0285,-0.0284,-0.0285,-0.0285,-0.0284,-0.0284,-0.0284,-0.0287,-0.0287,-0.0288,-0.0288,-0.0288,-0.0288,-0.0288,-0.0285,0,0,-0.0288,-0.0287,0,0,0,0,0,0,0,0,-0.0285,-0.0285,-0.0285,-0.0285,-0.0285,-0.0286,-0.0285,-0.0284,-0.0287,-0.0287,-0.0288,-0.0288,-0.0287,-0.0287,-0.0287,-0.0285,-0.0285,-0.0287,-0.0287,-0.0287,-0.0287,0,0,0,0,0,0,0,-0.0285,-0.0285,-0.0284,-0.0285,-0.0285,-0.0286,-0.0286,-0.0285,-0.0286,-0.0287,-0.0287,-0.0287,-0.0287,-0.0287,-0.0287,-0.0285,-0.0287,-0.0287,-0.0287,-0.0287,-0.0281,-0.028,0,0,0,0,0,0,-0.0285,-0.0285,-0.0284,-0.0284,-0.0285,-0.0286,-0.0286,-0.0286,-0.0286,-0.0286,-0.0287,-0.0287,-0.0287,-0.0287,-0.0287,-0.0284,-0.0287,-0.0287,-0.0287,-0.0281,-0.0281,-0.028,0,0,0,0,0,0,-0.0285,-0.0285,-0.0284,-0.0284,-0.0284,-0.0286,-0.0285,-0.0285,-0.0285,-0.0286,-0.0287,-0.0286,-0.0287,-0.0287,-0.0285,-0.0284,-0.0287,-0.0287,-0.0281,-0.0281,-0.028,-0.0277,0,0,0,0,0,0,-0.0285,-0.0285,-0.0284,-0.0284,-0.0284,-0.0282,-0.0285,-0.0285,-0.0285,-0.0285,-0.0286,-0.0286,-0.0287,-0.0286,-0.0285,-0.0284,-0.0287,-0.0281,-0.0281,-0.028,-0.0277,-0.0276,-0.0276,0,0,0,0,0,-0.0285,-0.0283,-0.0284,-0.0283,-0.0283,-0.0282,-0.0282,-0.0283,-0.0285,-0.0284,-0.0285,-0.0286,-0.0284,-0.0285,-0.0285,-0.0283,-0.0281,-0.0281,-0.0281,-0.0277,-0.0277,-0.0276,0,0,0,0,0,0,-0.0281,-0.0283,-0.0284,-0.0282,-0.0282,-0.0283,-0.0281,-0.0283,-0.0282,-0.0283,-0.0284,-0.0284,-0.0282,-0.0283,-0.0284,-0.0281,-0.0283,-0.0282,-0.028,-0.028,-0.0279,-0.0279,-0.0287,0,0,0,0,0,-0.028,-0.028,-0.0281,-0.0279,-0.0279,-0.028,-0.028,-0.0281,-0.0281,-0.0281,-0.0281,-0.0282,-0.0281,-0.028,-0.028,-0.0277,-0.0277,-0.0276,-0.0275,-0.0275,-0.0274,-0.0273,-0.0272,-0.0279,-0.0279,-0.0279,0,0,-0.0278,-0.0279,-0.0278,-0.0278,-0.0278,-0.0277,-0.028,-0.0279,-0.0278,-0.0281,-0.0279,-0.028,-0.028,-0.0277,-0.0277,-0.0278,-0.0273,-0.0274,-0.0274,-0.0274,-0.0273,-0.0272,-0.0271,-0.0279,-0.0279,-0.0279,0,0,-0.0274,-0.0274,-0.0273,-0.0273,-0.0273,-0.0274,-0.0274,-0.0274,-0.0275,-0.0273,-0.0275,-0.0274,-0.0273,-0.0273,-0.0273,-0.0269,-0.027,-0.0268,-0.0265,-0.0264,-0.0263,-0.0263,-0.0261,-0.0261,-0.0268,-0.0268,-0.0268,0,-0.0271,-0.027,-0.0272,-0.027,-0.027,-0.0273,-0.0271,-0.0271,-0.0271,-0.0271,-0.0272,-0.027,-0.0271,-0.0269,-0.0267,-0.0267,-0.0267,-0.0268,-0.0263,-0.0263,-0.0262,-0.0261,-0.026,-0.0268,-0.0268,-0.0268,-0.0268,0,-0.0266,-0.0266,-0.0264,-0.0264,-0.0264,-0.0262,-0.0264,-0.0263,-0.0264,-0.0265,-0.0263,-0.0264,-0.0263,-0.0263,-0.0264,-0.0261,-0.0262,-0.0263,-0.0265,-0.0262,-0.026,-0.0259,-0.0267,-0.0268,-0.0268,-0.0268,0,0,-0.026,-0.0261,-0.026,-0.026,-0.0261,-0.026,-0.0259,-0.0258,-0.0258,-0.0258,-0.0256,-0.0255,-0.0257,-0.0257,-0.0258,-0.0257,-0.0253,-0.0258,-0.0258,-0.0257,-0.0249,-0.0248,-0.0247,-0.0254,-0.0254,-0.0254,-0.0249,0,-0.0255,-0.0253,-0.0255,-0.0252,-0.0251,-0.0253,-0.0252,-0.0252,-0.0253,-0.0252,-0.0253,-0.0252,-0.0254,-0.0254,-0.0253,-0.0254,-0.0251,-0.0254,-0.0253,-0.0253,-0.0252,-0.0246,-0.0245,-0.0241,-0.0249,-0.0249,-0.0248,0,-0.025,-0.025,-0.0247,-0.0248,-0.0247,-0.0246,-0.0246,-0.0245,-0.0245,-0.0246,-0.0246,-0.0247,-0.0246,-0.0248,-0.0246,-0.0248,-0.0248,-0.0248,-0.0248,-0.0248,-0.025,-0.0246,-0.0239,-0.0239,-0.0248,-0.0248,-0.0248,0,-0.0245,-0.0244,-0.0242,-0.0242,-0.0243,-0.0242,-0.0243,-0.0243,-0.0243,-0.0242,-0.0242,-0.0242,-0.0241,-0.0241,-0.0242,-0.0244,-0.024,-0.0243,-0.024,-0.024,-0.0239,-0.0239,-0.0232,-0.0239,-0.0239,-0.0239,-0.0239,0,-0.024,-0.0238,-0.024,-0.0239,-0.0237,-0.0239,-0.0237,-0.0237,-0.0238,-0.0237,-0.0239,-0.0238,-0.024,-0.0239,-0.024,-0.0238,-0.0238,-0.0238,-0.0238,-0.0238,-0.0238,-0.0237,-0.0238,-0.0239,-0.0239,-0.0239,-0.0239,0,-0.0234,-0.0235,-0.0233,-0.0234,-0.0235,-0.0233,-0.0234,-0.0233,-0.0234,-0.0232,-0.0232,-0.0234,-0.0233,-0.0234,-0.0233,-0.0234,-0.0231,-0.0232,-0.0231,-0.0231,-0.0229,-0.0229,-0.0221,-0.022,-0.0228,-0.0228,-0.0228,0,-0.023,-0.0229,-0.023,-0.0229,-0.0229,-0.0229,-0.0228,-0.023,-0.023,-0.023,-0.0229,-0.0228,-0.0228,-0.0226,-0.0227,-0.0226,-0.0227,-0.0224,-0.0227,-0.0226,-0.0227,-0.0227,-0.0226,-0.0224,-0.0224,-0.0224,-0.0224,0,-0.0224,-0.0224,-0.0224,-0.0224,-0.0223,-0.0223,-0.0223,-0.0222,-0.0224,-0.0224,-0.0223,-0.0222,-0.0222,-0.0221,-0.0221,-0.0221,-0.0222,-0.0223,-0.0222,-0.0221,-0.0221,-0.0221,-0.0229,-0.0223,-0.0223,-0.0223,-0.0223,-0.0223,-0.0219,-0.0217,-0.0218,-0.0217,-0.0217,-0.0217,-0.0216,-0.0217,-0.0217,-0.0216,-0.0217,-0.0216,-0.0217,-0.0216,-0.0216,-0.0215,-0.0217,-0.0216,-0.0216,-0.0215,-0.0215,-0.0221,-0.0215,-0.0215,-0.0215,-0.0215,-0.0215,0,-0.0212,-0.0212,-0.0212,-0.0212,-0.0211,-0.0213,-0.0213,-0.0212,-0.0211,-0.0212,-0.0211,-0.021,-0.0209,-0.021,-0.021,-0.0209,-0.0209,-0.0209,-0.0208,-0.0208,-0.0214,-0.0214,-0.0208,-0.0208,-0.0208,-0.0208,-0.0208,-0.0208,-0.0208,-0.0207,-0.0207,-0.0206,-0.0206,-0.0205,-0.0205,-0.0205,-0.0205,-0.0204,-0.0203,-0.0204,-0.0204,-0.0204,-0.0203,-0.0204,-0.0203,-0.0202,-0.0202,-0.0207,-0.0208,-0.0209,-0.0209,-0.0202,-0.0202,-0.0197,-0.0197,-0.0197]}]]